Showing default

TEMPSAT 1, 1512

Orbit data source: Space-Track

TEMPSAT 1, 1512 is a payload satellite owned by NRL (US) in LEO that was launched on Fri, 13 Aug 1965 UTC via a THOR ABLESTAR launch vehicle from the Air Force Western Test Range (AFWTR). Payload-class satellites include a variety of spacecraft equipped with specific instruments for various scientific and technological missions. These include communications satellites like Starlink; space stations such as the ISS; scientific satellites like the Hubble; Earth observation satellites from companies like Planet Labs, Umbra, and HawkEye 360; GPS; miniature CubeSats for education and research; and military/defense satellites.

Loading next visibility...
Identifier
1512, 1965-065E
Orbit
LEO
Country
Flag of USUS
Related business
Manufacturer
NRL
Mission
Operational spacecraft
Bus & Motor
NRL 14", Unknown motor
Mass
9 kg wet, 9 kg dry
Launch date (UTC)
1965-08-13 (60 years ago)
Launch vehicle
THOR ABLESTAR
Launch site
Air Force Western Test Range (AFWTR)
Object type
Payload
Rocket body
Debris
Shape & HBR
Unknown
Radar Cross Section
Small (<0.1 m²)

Expand to show TLE details & history
Last TLE update: 9 hours ago

TLE from 9 hours ago
0 TEMPSAT 1
1  1512U 65065E   26034.98208637  .00000023  00000-0  30016-4 0  9998
2  1512  89.9876 212.6117 0067853 262.5272 265.2213 13.33586876942290
Epoch: 2026-02-03T23:34Z
TLE epoch observation values (Epoch: 2026-02-03T23:34:12.262Z)
Latitude
12.9883°
Longitude
-95.09745°
Altitude
1,140.038 km
Speed
7.282 km/s
True Right ascension
02h 10m 26s
True Declination
12° 55' 01"
Sunlit
Object was in daylight at epoch
Visualization orbit readout
Latitude
Unknown
Longitude
Unknown
Altitude
Unknown
Speed
Unknown
Apparent Right ascension
Unknown
Apparent Declination
Unknown
Sunlit
N/A
Visualization observer readout
Local Sidereal Time
10:47:37
Azimuth
Unknown
Elevation
Unknown
Doppler factor
Unknown
Orbital elements
Apogee altitude
1,181.285 km
Perigee altitude
1,079.391 km
Semi-major axis
7,508.475 km
Eccentricity
0.00679
Inclination
89.9876°
RAAN
212.6117°
Arg. of periapsis
262.5272°
True anomaly
264.44704°
Mean anomaly
265.2213°
Eccentric anomaly
264.83411°
Mean motion
3.33592 °/min
Orbital period
107.92 mins
BSTAR
0.000030016
Loading maneuver chart data...
Computing Atmospheric mass density...
Loading historical data...
Loading historical data...
Loading historical data...
Loading historical data...
Loading historical data...
Loading historical data...
Loading historical data...

Documentation

Showing up to 5 results
|